College Station, TX

11:02 AM CST on December 04, 2016 (GMT -0600)
Easterwood

Weather History for KCLL - November, 2010

Change the Weather History Date:

Friday, November 12, 2010

  Actual Average Record
Temperature  
Mean Temperature 70 °F 62 °F  
Max Temperature 84 °F 72 °F 86 °F (1955)
Min Temperature 56 °F 52 °F 25 °F (1950)
Degree Days  
Heating Degree Days 0 5  
Month to date heating degree days 48 48  
Since 1 July heating degree days 60 85  
Cooling Degree Days 5 2  
Month to date cooling degree days 35 37  
Year to date cooling degree days 3350 3049  
Growing Degree Days 18 (Base 50)    
Moisture  
Dew Point 65 °F    
Average Humidity 72    
Maximum Humidity 93    
Minimum Humidity 51    
Precipitation  
Precipitation 0.17 in 0.12 in 2.44 in (1998)
Month to date precipitation 0.44 1.37  
Year to date precipitation 26.51 34.98  
Sea Level Pressure  
Sea Level Pressure 30.14 in    
Wind  
Wind Speed 12 mph (SE)    
Max Wind Speed 22 mph    
Max Gust Speed 26 mph    
Visibility 8 miles    
Events Rain    
T = Trace of Precipitation, MM = Missing Value Source: NWS Daily Summary

Daily Weather History Graph

Daily Weather History Graph

Search for Another Location

Airport or City:

Trip Planner

Search our weather history database for the weather conditions in past years. The results will help you decide how hot, cold, wet, or windy it might be!

Date:

Astronomy

Nov. 12, 2010 Rise Set
Actual Time 6:49 AM CST 5:29 PM CST
Civil Twilight 6:23 AM CST 5:55 PM CST
Nautical Twilight 5:54 AM CST 6:24 PM CST
Astronomical Twilight 5:26 AM CST 6:52 PM CST
Moon 12:21 PM CST (11/12) 11:33 PM CST (11/12)
Length of Visible Light 11h 31m
Length of Day
10h 40m
Waxing Crescent, 41% of the Moon is Illuminated
Nov 12
Waxing Crescent
Nov 13
First Quarter
Nov 21
Full
Nov 28
Last Quarter
Dec 5
New

Hourly Weather History & Observations

Time (CST) Temp. Heat Index Dew Point Humidity Pressure Visibility Wind Dir Wind Speed Gust Speed Precip Events Conditions
12:09 AM 69.8 °F - 66.2 °F 88% 30.17 in 6.0 mi SE 6.9 mph - N/A   Mostly Cloudy
12:31 AM 69.8 °F - 66.2 °F 88% 30.16 in 7.0 mi ESE 9.2 mph - N/A   Overcast
12:53 AM 70.0 °F - 66.9 °F 90% 30.15 in 7.0 mi ESE 8.1 mph - N/A   Overcast
1:51 AM 69.8 °F - 66.2 °F 88% 30.15 in 6.0 mi ESE 6.9 mph - N/A   Overcast
1:53 AM 70.0 °F - 66.9 °F 90% 30.14 in 6.0 mi ESE 6.9 mph - N/A   Overcast
2:09 AM 69.8 °F - 66.2 °F 88% 30.15 in 6.0 mi ESE 8.1 mph - N/A   Overcast
2:16 AM 69.8 °F - 66.2 °F 88% 30.15 in 6.0 mi ESE 8.1 mph - N/A   Overcast
2:53 AM 70.0 °F - 66.9 °F 90% 30.13 in 7.0 mi SE 9.2 mph - 0.00 in Rain Light Rain
3:36 AM 69.8 °F - 68.0 °F 94% 30.13 in 3.0 mi SE 9.2 mph - 0.01 in Rain Light Rain
3:38 AM 69.8 °F - 68.0 °F 94% 30.13 in 4.0 mi SE 9.2 mph - 0.01 in Rain Light Rain
3:53 AM 70.0 °F - 68.0 °F 93% 30.12 in 7.0 mi ESE 10.4 mph - 0.01 in   Overcast
4:12 AM 69.8 °F - 68.0 °F 94% 30.13 in 6.0 mi SE 10.4 mph - N/A   Overcast
4:26 AM 69.8 °F - 68.0 °F 94% 30.13 in 6.0 mi SE 9.2 mph - N/A   Overcast
4:50 AM 69.8 °F - 66.2 °F 88% 30.13 in 6.0 mi SE 12.7 mph - N/A   Overcast
4:53 AM 69.1 °F - 66.9 °F 93% 30.12 in 7.0 mi SE 10.4 mph - N/A   Mostly Cloudy
5:32 AM 69.8 °F - 66.2 °F 88% 30.13 in 7.0 mi SE 8.1 mph - 0.00 in   Overcast
5:49 AM 69.8 °F - 66.2 °F 88% 30.13 in 7.0 mi SE 10.4 mph - 0.00 in   Overcast
5:53 AM 69.1 °F - 66.9 °F 93% 30.12 in 7.0 mi SE 10.4 mph - 0.00 in   Overcast
5:59 AM 69.8 °F - 66.2 °F 88% 30.13 in 7.0 mi SE 9.2 mph - N/A   Overcast
6:01 AM 69.8 °F - 66.2 °F 88% 30.13 in 7.0 mi SE 10.4 mph - N/A   Overcast
6:53 AM 69.1 °F - 66.9 °F 93% 30.13 in 7.0 mi SE 9.2 mph - N/A   Overcast
7:21 AM 69.8 °F - 66.2 °F 88% 30.15 in 6.0 mi SE 9.2 mph - N/A   Mostly Cloudy
7:50 AM 69.8 °F - 66.2 °F 88% 30.15 in 6.0 mi SE 9.2 mph - N/A   Overcast
7:53 AM 69.8 °F - 66.2 °F 88% 30.15 in 6.0 mi SSE 12.7 mph - N/A   Overcast
8:01 AM 69.8 °F - 66.2 °F 88% 30.15 in 7.0 mi SSE 12.7 mph - N/A   Overcast
8:53 AM 71.1 °F - 68.0 °F 90% 30.15 in 9.0 mi SSE 15.0 mph 19.6 mph N/A   Overcast
9:29 AM 73.4 °F - 68.0 °F 83% 30.16 in 10.0 mi SE 16.1 mph 21.9 mph N/A   Scattered Clouds
9:53 AM 75.9 °F - 66.9 °F 74% 30.15 in 10.0 mi SSE 16.1 mph - N/A   Scattered Clouds
10:20 AM 75.2 °F - 66.2 °F 73% 30.16 in 10.0 mi South 17.3 mph - N/A   Mostly Cloudy
10:30 AM 75.2 °F - 66.2 °F 73% 30.16 in 10.0 mi South 18.4 mph 24.2 mph N/A   Mostly Cloudy
10:53 AM 79.0 °F - 64.9 °F 62% 30.14 in 10.0 mi South 17.3 mph 24.2 mph N/A   Mostly Cloudy
11:53 AM 79.0 °F - 64.0 °F 60% 30.13 in 10.0 mi South 13.8 mph - N/A   Mostly Cloudy
12:53 PM 81.0 °F 81.9 °F 62.1 °F 52% 30.09 in 10.0 mi South 16.1 mph - N/A   Scattered Clouds
1:53 PM 82.0 °F 83.0 °F 62.1 °F 51% 30.07 in 10.0 mi South 16.1 mph 21.9 mph N/A   Mostly Cloudy
2:53 PM 82.0 °F 83.0 °F 62.1 °F 51% 30.06 in 10.0 mi South 11.5 mph - N/A   Scattered Clouds
3:53 PM 82.0 °F 83.0 °F 62.1 °F 51% 30.06 in 10.0 mi South 16.1 mph 24.2 mph N/A   Mostly Cloudy
4:53 PM 80.1 °F 81.5 °F 63.0 °F 56% 30.06 in 10.0 mi SSW 12.7 mph 21.9 mph N/A   Mostly Cloudy
5:53 PM 75.9 °F - 64.0 °F 67% 30.07 in 10.0 mi South 10.4 mph - N/A   Mostly Cloudy
6:53 PM 73.0 °F - 66.0 °F 79% 30.11 in 8.0 mi South 10.4 mph - 0.02 in Rain Light Rain
7:53 PM 71.6 °F - 66.2 °F 83% 30.12 in 10.0 mi South 6.9 mph - N/A Rain Light Rain
8:34 PM 64.4 °F - 59.0 °F 83% 30.16 in 10.0 mi NW 13.8 mph 25.3 mph 0.00 in   Overcast
8:53 PM 63.0 °F - 57.0 °F 81% 30.16 in 8.0 mi NNW 17.3 mph 26.5 mph 0.01 in Rain Light Rain
9:43 PM 59.0 °F - 55.4 °F 88% 30.21 in 10.0 mi NNW 9.2 mph 19.6 mph 0.05 in   Overcast
9:53 PM 57.9 °F - 55.0 °F 90% 30.19 in 4.0 mi NNW 9.2 mph - 0.09 in Rain Rain
10:53 PM 55.9 °F - 52.0 °F 87% 30.22 in 10.0 mi NNW 11.5 mph - 0.00 in Rain Light Rain
11:53 PM 55.4 °F - 51.8 °F 88% 30.22 in 10.0 mi NNW 9.2 mph - N/A Rain Light Rain